Regional Weather Roundup
Issued by NWS Bismarck, ND

Home | Current Version | Previous Version | Text Only | Print | Product List | Glossary On
Versions: 1 2 3 4 5 6 7 8 9 10 11 12 13 14 15 16 17 18 19 20 21 22 23 24 25 26 27 28 29 30 31 32 33 34 35 36 37 38 39 40 41 42 43 44 45 46 47 48 49 50
000
ASUS43 KBIS 181859
RWRBIS

NWR BROADCAST TEXT
NATIONAL WEATHER SERVICE BISMARCK ND
100 PM CST THU DEC 18 2014

NOTE: "FAIR" INDICATES FEW OR NO CLOUDS BELOW 12,000 FEET WITH NO
SIGNIFICANT WEATHER AND/OR OBSTRUCTIONS TO VISIBILITY.


CITY           SKY/WX    TMP DP  RH WIND       PRES   REMARKS
WILLISTON      CLOUDY    25  21  85 S6        29.97F WCI  18
MINOT          CLOUDY    22  17  81 S9        30.01F HAZE    WCI  12
MINOT AFB      CLOUDY    21  21 100 SW9       30.01F WCI  11
BISMARCK       CLOUDY    22  20  92 SE8       30.05F WCI  12
DICKINSON      NOT AVBL
GARRISON         N/A     22  19  89 S9        30.00F WCI  12
HETTINGER ARPT CLOUDY    29  27  92 S6        29.97F
JAMESTOWN      NOT AVBL
CARRINGTON     CLOUDY    19  19 100 MISG      30.09F
CROSBY         CLOUDY    23  23 100 SW9       29.97F WCI  13
HAZEN          CLOUDY    23  18  80 S12       30.02F WCI  12
OAKES            N/A     23  19  86 S12       30.15F WCI  12
WATFORD CITY   CLOUDY    25  23  93 E7        29.95F FOG     WCI  17
$$

CITY           SKY/WX    TMP DP  RH WIND       PRES   REMARKS
GRAND FORKS    CLOUDY    18  13  80 S10       30.20F WCI   6
GRAND FORKS AF CLOUDY    17  16  98 S8        30.19F WCI   6
DEVILS LAKE    CLOUDY    18   9  68 S10       30.09S WCI   6
FARGO          CLOUDY    18  12  77 SE13      30.21F WCI   5
GWINNER        CLOUDY    25  21  86 MISG      30.17F
ROLLA          CLOUDY    16  16 100 S10G16    30.06F WCI   3
$$

CITY           SKY/WX    TMP DP  RH WIND       PRES   REMARKS
ABERDEEN       CLOUDY    24  19  81 S12       30.15F WCI  13
MOBRIDGE       CLOUDY    25  23  92 S10       30.04F FOG     WCI  15
BUFFALO          N/A     33  29  85 W9        29.89F
RAPID CITY     SUNNY     36  27  69 E3        29.98F
GLASGOW        CLOUDY    27  24  89 SW5       29.92F FOG
SIDNEY         CLOUDY    28  23  80 CALM      29.99F
WOLF POINT     CLOUDY    29  25  85 CALM      29.95F
GLENDIVE       SUNNY     34  25  69 S8        29.96F
MILES CITY     MOSUNNY   32  25  75 SW7       29.96F
BAKER          SUNNY     34  30  85 SW12      29.95F
$$

CITY           SKY/WX    TMP DP  RH WIND       PRES   REMARKS
BILLINGS       MOSUNNY   34  21  59 SW22G31   29.96F
GREAT FALLS    CLOUDY    38  25  59 SW14      29.91S
$$



USA.gov is the U.S. government's official web portal to all federal, state and local government web resources and services.